Temp
22 22 22 23 23 22 23 23 22 21 19 18 18 19 16 13 11 7 10 14 15 19 22 20 21 22 22 24 25 25 23 27 30 25 25 25 23 30 33 35 36 36 37 38 37 37 38 38 39 39 39 41 42 43 44 44 45 46 47 48 49 50 51 53 55 56 57 57 57 58 60 60 61 60
22 23 22 22 22 23 23 21 23 22 19 19 18 18 18 17 13 10 10 13 17 17 21 22 21 21 22 23 24 25 24 29 29 25 24 24 25 32 33 33 33 35 36 35 35 36 37 38 38 39 39 40 41 43 43 44 44 45 46 47 48 48 49 51 52 54 55 56 56 56 57 59 60 60
20 19 20 21 21 22 22 22 22 23 21 20 21 20 19 16 15 14 11 10 16 21 17 20 22 21 21 23 23 24 24 26 29 26 24 24 29 31 30 31 32 33 34 34 34 35 36 37 38 38 39 39 40 41 42 43 42 44 45 46 46 46 47 49 50 53 54 55 55 56 56 56 58 59
19 19 19 19 20 20 19 19 20 21 21 20 19 17 17 16 15 14 11 10 13 20 19 19 20 21 22 23 22 22 23 26 28 25 24 25 29 27 27 30 31 32 33 33 34 35 37 37 38 38 38 38 39 39 40 41 41 42 44 44 43 44 46 48 49 51 54 55 57 57 57 57 57 58
19 17 16 16 18 19 18 16 16 18 20 18 18 16 15 15 15 14 11 11 13 18 19 20 21 21 22 21 22 21 21 22 23 26 23 24 24 25 26 27 29 31 31 32 33 34 36 36 36 36 37 37 37 38 39 39 40 40 41 40 41 43 44 46 47 48 50 56 56 56 57 57 57 56
18 17 16 16 16 15 16 14 14 16 15 16 16 16 16 16 15 16 13 11 11 12 16 18 20 20 22 19 22 20 20 21 22 21 22 23 24 24 26 26 27 30 31 32 33 34 35 36 36 36 36 36 36 37 38 39 39 39 39 39 39 40 42 43 44 47 48 53 55 55 56 57 57 56
17 16 15 15 16 13 13 14 14 13 13 15 14 14 15 14 15 16 16 13 11 11 13 17 17 19 20 19 19 20 21 21 21 20 21 22 23 24 25 25 26 29 31 32 33 34 35 35 35 35 35 36 36 37 38 37 37 37 38 38 38 38 39 40 42 45 46 48 53 54 54 54 55 55
16 14 14 15 15 14 13 12 12 12 11 12 10 12 12 12 13 16 16 15 13 12 12 13 16 18 17 18 19 21 21 20 20 21 21 22 22 22 24 25 26 28 31 32 33 33 33 34 34 35 35 36 36 36 35 36 36 37 37 37 37 38 38 38 40 42 44 46 48 51 52 52 52 51
17 15 14 14 14 13 12 13 13 12 11 11 10 10 12 11 10 12 15 14 14 13 12 12 11 16 16 18 18 18 17 18 19 20 20 20 21 22 23 25 27 29 30 31 31 32 32 33 33 34 35 35 36 36 35 35 35 36 36 36 37 37 37 37 37 39 41 42 44 47 48 49 48 48
17 15 14 14 14 13 12 12 13 13 12 11 11 10 11 10 9 9 10 12 12 11 12 11 10 11 11 10 14 17 17 16 15 16 18 20 20 20 21 23 26 27 27 27 28 29 30 31 33 34 34 35 35 36 35 35 35 34 35 35 36 37 37 37 37 37 39 41 42 44 44 45 46 46
17 15 14 13 14 13 12 12 11 11 11 11 11 12 12 11 9 9 9 9 10 10 9 9 8 10 10 12 12 14 16 16 15 14 14 15 18 19 20 20 23 26 26 28 29 29 30 31 30 32 33 34 35 35 35 35 34 33 34 35 36 36 37 37 37 36 37 40 40 42 43 43 44 45
14 14 14 14 13 13 13 12 12 12 11 11 10 11 11 11 10 10 9 8 8 7 6 7 7 7 8 10 12 11 12 12 11 14 14 12 13 15 18 20 20 22 23 24 25 27 28 29 30 31 32 32 33 34 34 34 33 33 34 35 36 36 37 37 37 36 36 37 39 40 42 43 43 44
14 14 13 13 13 14 15 16 16 15 15 11 9 10 10 10 9 9 8 8 8 6 5 6 6 7 8 8 6 6 6 7 10 11 11 12 14 15 15 18 22 22 22 23 23 23 26 25 26 27 28 29 31 32 33 33 33 33 34 35 36 36 37 37 37 36 36 36 38 39 41 41 42 43
12 13 13 13 16 16 17 17 17 18 18 18 14 11 9 10 10 9 8 6 6 8 7 7 8 6 6 5 6 6 8 9 9 10 10 8 12 12 11 15 18 23 22 20 19 22 25 24 24 26 26 29 30 30 31 31 32 33 35 36 36 37 37 37 37 37 36 35 36 38 39 40 41 42
11 11 12 12 14 16 16 16 18 18 19 21 21 20 17 15 12 9 7 7 7 7 6 7 3 6 6 6 7 8 9 7 8 8 9 10 8 7 6 6 14 22 21 19 18 19 23 24 21 23 25 27 28 30 30 34 36 36 36 37 37 38 38 38 38 38 37 35 35 36 38 39 40 40
10 10 10 12 12 13 13 14 15 17 19 20 20 21 21 21 20 19 12 9 7 7 7 7 7 3 4 3 4 6 5 8 6 8 8 10 9 7 7 9 8 16 21 17 16 16 21 23 22 22 24 27 28 29 32 35 36 37 37 37 38 38 39 39 39 39 39 37 36 36 37 38 40 40
10 10 10 10 11 12 15 15 13 12 14 18 20 20 20 20 21 21 21 20 13 10 8 7 7 7 6 5 6 7 5 5 4 4 4 7 11 11 10 9 11 14 20 17 13 13 18 21 20 20 24 26 27 29 32 34 36 38 38 38 38 39 39 39 39 39 39 39 38 37 38 38 39 40
10 10 9 9 10 11 12 13 13 13 13 14 16 17 17 18 19 21 22 22 21 17 12 10 7 8 7 8 7 9 11 8 5 4 5 9 11 13 13 15 15 15 16 13 13 12 16 19 21 20 24 26 27 28 32 35 36 37 39 38 38 38 39 39 39 39 39 40 40 38 37 38 39 39
11 12 11 11 10 10 10 12 14 13 13 13 14 15 16 17 18 18 18 19 19 18 16 13 12 12 11 11 11 8 11 11 12 11 13 15 15 14 11 11 11 12 13 13 13 8 16 21 20 21 25 27 27 28 31 33 36 37 38 38 38 38 39 39 39 39 39 40 40 40 39 39 39 40
12 12 12 11 11 11 11 13 19 18 15 14 13 13 14 16 17 18 21 23 23 21 19 17 15 15 14 17 13 14 12 12 13 14 15 13 10 10 11 9 7 7 13 16 14 10 13 19 20 22 26 26 26 28 28 32 35 36 37 38 39 38 38 39 39 39 39 40 40 40 41 40 39 39
12 12 12 12 11 12 12 15 18 20 20 14 12 12 12 14 15 16 19 24 25 26 25 24 23 22 23 23 24 24 24 20 17 15 13 12 13 10 8 7 6 10 15 14 16 15 15 19 20 22 23 24 25 26 28 29 32 34 36 37 38 39 39 39 39 39 39 39 40 40 41 41 40 39
12 12 14 13 12 11 12 17 19 20 19 14 12 12 12 12 13 14 17 18 20 25 26 27 26 25 25 25 25 25 26 25 24 16 13 14 13 11 10 6 4 8 10 13 17 15 16 21 22 20 22 22 20 24 27 29 30 33 33 35 37 38 39 39 39 39 39 39 39 40 40 40 39 38
12 12 14 15 14 13 14 19 20 21 20 16 13 13 12 12 12 14 16 16 16 17 17 19 21 22 24 24 23 23 26 26 26 20 18 17 13 12 10 7 6 9 10 12 18 13 14 17 20 22 21 18 22 23 26 27 28 28 28 30 32 36 38 39 39 39 39 39 40 39 40 40 39 35
11 12 12 14 17 19 19 20 21 22 23 18 15 14 13 12 12 16 16 17 17 16 15 16 17 18 20 21 22 22 22 23 24 23 20 19 16 14 11 9 9 7 10 14 20 13 11 14 20 23 22 18 16 22 26 26 28 28 28 28 27 32 36 36 36 37 38 39 39 40 40 40 38 34
11 11 12 14 16 19 21 21 22 23 24 23 17 16 14 15 17 18 14 16 18 16 15 15 15 16 16 16 16 16 15 16 17 18 21 21 20 18 15 12 9 9 12 17 22 13 14 19 20 21 16 17 20 20 23 26 28 28 28 28 27 28 31 31 31 30 35 38 38 39 40 40 40 35
12 13 14 14 16 19 21 22 23 24 24 25 19 18 22 23 23 19 15 13 15 15 15 14 14 14 14 13 13 13 12 13 14 14 15 19 20 20 19 17 13 9 12 15 24 20 20 19 19 17 17 18 20 22 21 23 27 29 29 28 27 28 30 30 30 29 29 31 32 35 36 39 40 39
14 15 15 16 18 20 21 22 23 24 25 25 22 24 25 25 24 22 16 14 14 14 14 14 13 14 15 15 14 13 12 12 13 13 13 14 16 17 18 18 17 17 18 10 16 19 17 14 16 13 16 20 19 20 20 19 23 28 28 29 27 27 28 30 28 29 28 29 29 36 38 39 40 40
15 15 16 17 21 22 23 24 24 25 24 23 25 25 25 24 23 20 17 15 14 14 14 14 14 15 16 15 13 13 14 14 14 14 14 14 14 15 15 17 19 18 17 15 13 14 12 13 15 15 15 19 19 18 17 23 24 25 25 29 28 26 25 26 28 29 29 28 25 28 29 30 30 33
15 17 20 21 22 22 22 23 24 24 24 26 26 25 25 24 22 20 18 17 16 15 15 15 16 16 16 16 16 16 15 17 15 11 12 13 14 15 17 16 17 18 19 18 14 13 13 14 16 17 19 21 20 20 20 18 22 23 25 25 24 25 25 25 25 27 27 26 28 29 29 30 29 31
18 20 21 21 21 20 21 20 20 20 22 24 25 25 24 23 22 21 20 19 18 16 17 17 17 17 18 18 19 19 18 13 15 14 13 11 11 12 13 15 16 16 16 17 16 12 16 18 17 17 19 22 22 21 20 20 20 23 25 24 26 28 26 28 27 26 28 26 27 28 28 29 29 29
16 17 18 18 19 19 20 21 22 22 22 22 23 23 23 23 23 22 21 20 19 19 17 18 19 20 21 23 22 20 20 18 17 16 18 17 16 16 16 16 16 16 16 15 17 18 18 19 21 21 20 21 23 22 21 21 21 22 23 25 25 21 24 27 28 27 26 26 26 27 28 29 28 29
15 16 17 18 17 17 17 18 18 19 21 21 21 22 23 22 23 23 23 22 21 20 19 17 15 15 14 17 20 21 21 21 21 20 18 17 16 18 19 17 17 18 19 18 18 20 22 20 19 17 19 21 20 21 22 22 21 22 21 21 22 24 25 24 27 28 29 27 26 24 23 25 25 25
14 15 14 13 13 13 14 14 15 17 18 19 21 21 21 21 21 21 21 18 17 17 17 16 14 13 9 11 13 17 19 21 22 22 20 19 17 18 19 18 18 18 19 19 19 19 20 19 20 19 18 21 24 23 20 18 20 19 16 19 15 17 19 23 25 25 27 28 27 27 25 25 25 26
10 11 11 11 11 11 12 12 13 15 17 18 19 20 20 20 19 19 19 17 15 15 16 15 13 11 11 9 9 11 15 17 20 22 23 21 22 20 19 18 19 20 20 18 16 16 16 15 15 19 20 22 22 23 23 22 21 18 19 20 18 15 19 24 22 20 23 24 26 24 24 24 26 26
9 8 8 10 11 11 12 12 13 15 16 17 18 18 18 18 18 18 17 16 15 15 14 14 13 12 12 11 11 11 11 13 16 15 18 20 21 21 21 20 20 19 19 18 17 16 16 16 18 20 20 20 19 21 26 26 23 21 17 19 19 16 16 21 23 18 18 21 22 22 22 23 23 23
7 8 8 9 10 12 11 12 14 15 17 18 18 17 16 16 17 17 16 16 16 14 14 13 12 11 12 14 15 15 13 14 11 10 11 13 16 18 18 20 21 21 22 21 21 20 20 19 19 19 17 17 17 16 17 27 27 23 18 14 16 16 13 15 20 21 22 18 17 20 21 21 22 21
6 7 8 9 10 12 12 12 13 15 17 18 18 17 16 15 16 16 16 16 14 14 13 13 12 10 11 14 16 17 16 14 11 10 9 8 10 13 14 16 17 18 19 20 20 17 17 19 20 20 18 17 15 14 15 19 25 28 21 18 17 17 15 16 18 19 21 22 20 18 17 19 20 20
4 6 7 9 10 11 12 14 14 15 17 18 17 17 16 16 15 14 14 14 13 12 12 11 9 9 9 11 11 12 13 15 14 12 12 10 9 8 9 10 11 13 14 15 14 14 16 19 21 21 19 17 16 15 15 16 14 18 26 20 17 19 18 16 16 17 19 18 18 15 20 22 21 19
5 6 7 9 10 11 11 13 15 15 16 17 17 15 14 13 12 12 13 13 12 12 10 8 7 7 7 7 10 10 9 9 10 11 12 12 13 13 13 13 12 13 16 18 17 17 18 20 21 22 21 19 17 17 16 10 11 12 18 28 21 15 14 16 18 18 18 17 13 13 18 23 27 27
7 7 8 9 10 12 12 13 14 16 15 16 16 15 13 12 12 12 11 10 10 9 10 8 7 5 2 2 5 3 6 6 7 8 11 12 14 16 17 17 17 18 19 19 18 17 16 18 20 22 22 20 21 18 17 16 12 10 11 19 28 23 16 16 22 22 20 17 13 13 14 19 19 20
6 6 7 9 10 11 13 13 14 15 16 16 14 14 13 12 12 11 11 10 9 8 6 4 6 3 4 -0 0 1 4 6 8 8 9 10 13 14 16 17 16 17 16 17 17 14 13 17 21 24 23 20 18 21 21 18 16 13 14 13 21 28 24 20 22 24 22 18 17 16 17 17 17 18
7 7 8 9 9 10 10 11 13 14 16 14 13 12 12 11 11 12 11 10 8 7 6 4 3 4 2 -1 -0 4 2 4 7 10 12 10 9 11 14 14 12 13 14 15 15 18 22 22 21 21 17 17 18 20 18 19 16 15 14 15 17 27 28 27 27 24 23 21 19 15 15 17 19 17
8 7 7 8 10 10 10 10 12 12 12 13 12 12 11 10 11 10 8 8 7 6 5 2 1 2 0 -3 -4 0 1 4 7 8 10 12 12 11 12 13 15 16 17 18 17 15 15 15 17 18 18 19 21 21 19 19 16 15 15 17 20 23 26 28 28 27 27 26 26 21 20 20 20 16
5 8 7 8 9 9 8 8 9 11 11 11 10 11 10 9 8 8 8 7 6 6 5 3 -0 0 -1 -5 -5 -4 -1 2 4 5 7 9 11 12 13 14 16 17 17 17 19 19 17 13 13 18 17 17 19 20 19 17 13 15 17 18 19 20 20 22 23 25 25 25 27 27 27 27 26 26
1 2 2 2 2 3 4 5 6 7 8 8 9 8 7 7 6 6 5 5 4 4 3 2 -0 -2 -3 -4 -3 -2 -2 7 5 5 7 7 8 10 11 12 13 14 15 16 17 17 15 12 10 11 14 15 18 19 19 19 17 15 16 17 18 19 20 20 20 20 19 18 22 27 28 28 28 27
MSLP
1019.39 1019.39 1019.39 1019.31 1019.27 1019.35 1019.39 1019.35 1019.35 1019.39 1019.43 1019.51 1019.59 1019.67 1019.71 1019.95 1020.15 1020.35 1020.07 1019.67 1019.91 1019.47 1019.43 1019.67 1019.07 1019.15 1019.15 1019.11 1019.03 1018.95 1018.87 1018.75 1018.55 1018.47 1018.43 1018.35 1018.27 1018.03 1017.63 1017.35 1017.15 1016.99 1016.67 1016.19 1015.75 1015.43 1015.07 1014.75 1014.51 1014.27 1013.95 1013.51 1013.15 1012.83 1012.31 1011.59 1010.75 1010.27 1009.75 1009.31 1008.87 1007.63 1005.67 1003.99 1003.39 1002.99 1002.55 1002.39 1002.83 1003.47 1003.87 1004.23 1003.83 1003.19
1019.11 1019.15 1019.19 1019.19 1019.15 1019.07 1019.11 1019.11 1019.11 1019.19 1019.27 1019.39 1019.47 1019.55 1019.63 1019.75 1019.87 1020.19 1020.19 1019.31 1019.31 1019.43 1019.23 1019.23 1019.19 1019.03 1019.07 1019.07 1019.03 1018.91 1018.79 1018.63 1018.43 1018.35 1018.27 1018.19 1018.11 1017.79 1017.51 1017.31 1017.19 1016.95 1016.59 1016.19 1015.83 1015.39 1014.99 1014.59 1014.23 1013.95 1013.71 1013.39 1012.75 1012.23 1011.91 1011.47 1010.95 1010.59 1010.39 1010.31 1009.63 1008.47 1006.27 1004.51 1003.71 1003.27 1002.79 1002.55 1002.95 1003.55 1003.91 1004.03 1003.71 1003.31
1018.91 1018.99 1018.99 1019.03 1018.99 1018.95 1018.91 1018.91 1018.87 1018.87 1018.99 1019.11 1019.27 1019.35 1019.51 1019.59 1019.59 1019.83 1020.07 1019.99 1018.67 1019.07 1019.31 1019.15 1019.07 1019.19 1019.07 1019.03 1018.91 1018.83 1018.79 1018.63 1018.43 1018.31 1018.15 1018.03 1017.87 1017.67 1017.51 1017.39 1017.11 1016.79 1016.47 1016.15 1015.83 1015.43 1014.99 1014.47 1014.03 1013.63 1013.31 1012.99 1012.47 1011.99 1011.63 1011.31 1011.03 1010.79 1010.91 1010.75 1009.95 1008.59 1006.67 1005.03 1004.27 1003.71 1003.39 1003.19 1003.51 1003.91 1004.07 1003.95 1003.63 1003.31
1018.63 1018.67 1018.75 1018.79 1018.83 1018.83 1018.83 1018.79 1018.79 1018.75 1018.75 1018.83 1018.95 1019.07 1019.23 1019.31 1019.43 1019.55 1019.71 1019.75 1019.07 1018.91 1019.03 1019.07 1019.11 1019.07 1018.99 1018.91 1018.87 1018.75 1018.67 1018.55 1018.39 1018.27 1018.15 1017.99 1017.75 1017.63 1017.51 1017.31 1017.03 1016.71 1016.35 1016.07 1015.79 1015.47 1015.03 1014.55 1014.11 1013.67 1013.35 1012.91 1012.55 1012.19 1011.75 1011.43 1011.19 1011.03 1010.99 1010.79 1009.95 1008.67 1006.99 1005.75 1005.11 1004.59 1004.23 1003.99 1003.95 1004.07 1004.07 1003.95 1003.59 1003.59
1018.39 1018.51 1018.55 1018.55 1018.59 1018.67 1018.71 1018.71 1018.75 1018.67 1018.63 1018.67 1018.71 1018.87 1019.03 1019.07 1019.23 1019.35 1019.47 1019.51 1019.19 1018.83 1018.95 1019.07 1019.03 1018.99 1018.91 1018.83 1018.75 1018.71 1018.67 1018.55 1018.39 1018.23 1018.15 1017.99 1017.87 1017.67 1017.43 1017.19 1016.91 1016.59 1016.27 1015.99 1015.75 1015.47 1015.11 1014.75 1014.39 1014.15 1013.83 1013.47 1013.03 1012.59 1012.11 1011.71 1011.55 1011.47 1011.51 1011.31 1010.19 1008.91 1007.51 1006.51 1005.99 1005.59 1005.19 1004.71 1004.51 1004.31 1004.15 1004.11 1003.83 1003.79
1018.07 1018.19 1018.31 1018.35 1018.43 1018.51 1018.51 1018.59 1018.63 1018.63 1018.59 1018.59 1018.59 1018.63 1018.75 1018.87 1018.95 1019.11 1019.23 1019.31 1019.43 1018.83 1018.91 1019.07 1018.95 1018.87 1018.79 1018.83 1018.67 1018.71 1018.63 1018.51 1018.35 1018.27 1018.11 1017.99 1017.87 1017.63 1017.31 1017.03 1016.79 1016.47 1016.15 1015.87 1015.59 1015.35 1015.07 1014.83 1014.63 1014.39 1014.19 1013.95 1013.59 1013.03 1012.47 1012.03 1011.87 1011.83 1011.87 1011.71 1010.71 1009.27 1008.15 1007.39 1006.87 1006.47 1006.03 1005.27 1004.95 1004.67 1004.67 1004.63 1004.43 1004.23
1017.71 1017.91 1017.99 1018.03 1018.23 1018.35 1018.43 1018.43 1018.47 1018.51 1018.47 1018.47 1018.47 1018.51 1018.63 1018.71 1018.75 1018.91 1018.91 1019.03 1019.03 1019.03 1018.91 1018.95 1018.95 1018.83 1018.75 1018.75 1018.63 1018.63 1018.59 1018.51 1018.39 1018.23 1018.03 1017.91 1017.75 1017.59 1017.31 1016.95 1016.63 1016.35 1016.03 1015.75 1015.51 1015.23 1014.99 1014.83 1014.67 1014.43 1014.19 1013.95 1013.67 1013.23 1012.79 1012.47 1012.27 1012.07 1012.03 1011.95 1011.03 1009.51 1008.55 1007.95 1007.71 1007.23 1006.75 1006.03 1005.63 1005.39 1005.39 1005.47 1005.35 1005.07
1017.35 1017.51 1017.71 1017.71 1017.95 1018.11 1018.23 1018.27 1018.39 1018.43 1018.43 1018.47 1018.47 1018.51 1018.55 1018.67 1018.71 1018.71 1018.75 1018.71 1018.75 1018.83 1018.91 1018.71 1018.87 1018.71 1018.75 1018.67 1018.63 1018.59 1018.55 1018.51 1018.35 1018.19 1017.91 1017.83 1017.67 1017.43 1017.15 1016.83 1016.47 1016.19 1015.91 1015.67 1015.47 1015.23 1014.95 1014.75 1014.55 1014.35 1014.11 1013.91 1013.67 1013.43 1013.11 1012.83 1012.59 1012.35 1012.27 1012.03 1010.99 1009.63 1008.59 1007.99 1007.91 1007.95 1007.75 1007.15 1006.55 1006.19 1006.11 1006.27 1006.35 1006.23
1016.87 1017.11 1017.27 1017.39 1017.67 1017.87 1018.03 1018.07 1018.15 1018.27 1018.39 1018.43 1018.51 1018.55 1018.63 1018.71 1018.71 1018.75 1018.63 1018.51 1018.51 1018.59 1018.67 1018.75 1018.75 1018.71 1018.71 1018.63 1018.59 1018.59 1018.67 1018.51 1018.39 1018.15 1017.99 1017.79 1017.55 1017.35 1017.03 1016.71 1016.31 1015.99 1015.79 1015.59 1015.43 1015.23 1014.95 1014.71 1014.51 1014.31 1014.11 1013.87 1013.63 1013.39 1013.11 1012.91 1012.75 1012.51 1012.19 1011.55 1010.59 1009.63 1009.03 1008.83 1008.75 1008.79 1008.55 1008.23 1007.67 1007.07 1006.79 1006.99 1007.19 1007.19
1016.39 1016.63 1016.83 1017.07 1017.35 1017.55 1017.71 1017.71 1017.83 1017.95 1018.07 1018.23 1018.39 1018.47 1018.55 1018.67 1018.79 1018.75 1018.67 1018.55 1018.43 1018.47 1018.51 1018.67 1018.83 1018.79 1018.75 1018.75 1018.67 1018.55 1018.63 1018.63 1018.47 1018.19 1017.91 1017.71 1017.55 1017.35 1016.99 1016.59 1016.19 1015.91 1015.67 1015.51 1015.35 1015.15 1014.91 1014.63 1014.39 1014.19 1013.95 1013.67 1013.35 1013.03 1012.79 1012.59 1012.39 1012.11 1011.71 1011.15 1010.55 1010.07 1009.83 1009.83 1009.79 1009.71 1009.43 1008.91 1008.31 1007.79 1007.51 1007.59 1007.95 1007.91
1015.99 1016.23 1016.47 1016.75 1016.95 1017.15 1017.31 1017.47 1017.59 1017.75 1017.91 1017.99 1018.03 1018.11 1018.23 1018.47 1018.71 1018.79 1018.75 1018.67 1018.55 1018.47 1018.55 1018.67 1018.79 1018.79 1018.75 1018.75 1018.63 1018.51 1018.55 1018.55 1018.51 1018.39 1018.07 1017.75 1017.51 1017.43 1017.15 1016.71 1016.23 1015.91 1015.59 1015.31 1015.15 1014.91 1014.59 1014.31 1014.11 1013.87 1013.55 1013.19 1012.87 1012.55 1012.35 1012.15 1011.95 1011.63 1011.43 1011.19 1010.91 1010.67 1010.47 1010.43 1010.43 1010.35 1009.99 1009.47 1008.99 1008.55 1008.19 1008.23 1008.55 1008.71
1015.67 1015.87 1016.11 1016.31 1016.55 1016.71 1016.87 1017.07 1017.27 1017.51 1017.67 1017.83 1017.87 1017.87 1018.07 1018.23 1018.47 1018.59 1018.71 1018.75 1018.67 1018.59 1018.63 1018.63 1018.67 1018.79 1018.75 1018.67 1018.55 1018.55 1018.55 1018.63 1018.47 1018.31 1018.07 1017.91 1017.71 1017.59 1017.23 1016.91 1016.55 1015.95 1015.67 1015.27 1014.83 1014.51 1014.23 1014.07 1013.83 1013.55 1013.23 1012.87 1012.51 1012.23 1012.07 1011.95 1011.79 1011.51 1011.31 1011.23 1011.15 1010.99 1010.87 1010.79 1010.79 1010.67 1010.27 1009.87 1009.43 1009.15 1008.99 1008.95 1009.19 1009.35
1015.35 1015.51 1015.71 1015.95 1016.11 1016.31 1016.47 1016.59 1016.79 1017.03 1017.27 1017.59 1017.67 1017.71 1017.87 1017.99 1018.23 1018.39 1018.55 1018.59 1018.63 1018.67 1018.67 1018.63 1018.71 1018.75 1018.71 1018.63 1018.63 1018.59 1018.67 1018.71 1018.59 1018.15 1018.07 1017.91 1017.75 1017.59 1017.35 1016.87 1016.51 1016.11 1015.75 1015.31 1014.87 1014.43 1014.15 1013.99 1013.83 1013.51 1013.15 1012.75 1012.39 1012.15 1011.99 1011.91 1011.71 1011.39 1011.11 1011.03 1011.03 1011.11 1011.27 1011.19 1011.11 1010.91 1010.51 1010.15 1009.75 1009.51 1009.51 1009.59 1009.75 1009.91
1015.07 1015.15 1015.35 1015.51 1015.71 1015.91 1016.03 1016.19 1016.35 1016.47 1016.67 1016.83 1017.11 1017.35 1017.59 1017.71 1017.91 1018.11 1018.27 1018.43 1018.47 1018.39 1018.47 1018.47 1018.51 1018.67 1018.51 1018.51 1018.55 1018.51 1018.43 1018.43 1018.31 1018.19 1017.95 1017.87 1017.63 1017.55 1017.39 1016.99 1016.59 1015.99 1015.83 1015.51 1014.99 1014.47 1014.19 1014.03 1013.75 1013.55 1013.27 1012.79 1012.55 1012.27 1012.07 1011.91 1011.63 1011.31 1010.99 1010.95 1011.11 1011.27 1011.47 1011.47 1011.27 1010.95 1010.59 1010.39 1010.23 1009.95 1009.91 1010.07 1010.23 1010.27
1014.75 1014.87 1015.03 1015.23 1015.39 1015.55 1015.67 1015.79 1015.87 1016.03 1016.15 1016.23 1016.35 1016.55 1016.91 1017.15 1017.35 1017.67 1017.91 1018.07 1018.19 1018.31 1018.31 1018.27 1018.51 1018.39 1018.27 1018.27 1018.35 1018.23 1018.19 1018.19 1018.07 1017.95 1017.91 1017.79 1017.63 1017.59 1017.55 1017.27 1016.35 1016.15 1015.95 1015.79 1015.39 1014.63 1014.15 1014.15 1013.95 1013.55 1013.27 1012.91 1012.63 1012.35 1012.11 1011.75 1011.39 1011.15 1011.03 1011.03 1011.23 1011.43 1011.55 1011.43 1011.15 1010.79 1010.59 1010.59 1010.55 1010.39 1010.35 1010.51 1010.67 1010.79
1014.35 1014.55 1014.75 1014.91 1015.11 1015.23 1015.35 1015.51 1015.67 1015.71 1015.75 1015.83 1015.91 1016.03 1016.15 1016.35 1016.51 1016.75 1017.11 1017.47 1017.83 1017.99 1018.07 1018.15 1018.07 1018.23 1018.11 1018.11 1018.15 1017.99 1017.99 1017.87 1017.91 1017.83 1017.87 1017.83 1017.75 1017.59 1017.47 1017.39 1017.15 1016.27 1016.23 1016.15 1015.79 1015.15 1014.23 1014.19 1013.95 1013.55 1013.19 1012.91 1012.71 1012.43 1012.03 1011.67 1011.35 1011.07 1010.99 1011.11 1011.27 1011.35 1011.39 1011.23 1010.91 1010.67 1010.51 1010.55 1010.71 1010.67 1010.75 1010.91 1011.03 1011.11
1013.95 1014.19 1014.43 1014.67 1014.79 1014.91 1015.03 1015.19 1015.39 1015.59 1015.67 1015.63 1015.63 1015.71 1015.79 1015.83 1015.91 1015.99 1016.19 1016.51 1016.99 1017.31 1017.63 1017.63 1017.67 1017.71 1017.83 1017.91 1017.71 1017.67 1017.59 1017.63 1017.67 1017.67 1017.79 1017.75 1017.63 1017.47 1017.43 1017.31 1017.07 1016.55 1016.43 1016.35 1016.27 1015.75 1014.39 1014.19 1013.99 1013.71 1013.03 1012.91 1012.71 1012.43 1012.11 1011.79 1011.55 1011.23 1011.07 1011.11 1011.19 1011.15 1011.03 1010.91 1010.75 1010.55 1010.43 1010.39 1010.59 1010.79 1011.07 1011.23 1011.35 1011.39
1013.51 1013.79 1014.07 1014.31 1014.47 1014.59 1014.79 1014.87 1015.03 1015.23 1015.47 1015.59 1015.59 1015.51 1015.51 1015.51 1015.55 1015.59 1015.55 1015.75 1016.11 1016.63 1016.99 1017.23 1017.35 1017.39 1017.47 1017.35 1017.31 1017.35 1017.35 1017.43 1017.47 1017.47 1017.55 1017.55 1017.47 1017.39 1017.23 1016.91 1016.83 1016.51 1016.51 1016.75 1016.43 1015.67 1014.35 1014.19 1014.03 1013.79 1013.19 1012.79 1012.55 1012.39 1012.15 1011.87 1011.63 1011.35 1011.07 1011.03 1011.03 1010.99 1010.83 1010.67 1010.59 1010.47 1010.39 1010.39 1010.51 1010.79 1011.15 1011.47 1011.63 1011.71
1012.87 1013.23 1013.55 1013.83 1014.03 1014.23 1014.47 1014.55 1014.67 1014.87 1015.03 1015.27 1015.39 1015.39 1015.23 1015.15 1015.19 1015.31 1015.35 1015.39 1015.55 1015.87 1016.35 1016.71 1016.87 1016.99 1017.11 1017.11 1017.07 1017.15 1017.23 1017.19 1017.11 1017.15 1017.15 1017.15 1017.23 1017.19 1017.11 1016.95 1016.83 1016.47 1016.15 1016.27 1016.31 1015.99 1014.55 1014.15 1014.19 1013.75 1013.23 1012.87 1012.55 1012.31 1012.11 1011.83 1011.55 1011.31 1011.03 1010.91 1010.91 1010.83 1010.75 1010.59 1010.47 1010.47 1010.43 1010.43 1010.51 1010.71 1011.11 1011.51 1011.75 1011.87
1012.31 1012.67 1013.03 1013.35 1013.59 1013.79 1013.99 1014.11 1014.11 1014.27 1014.63 1014.95 1015.15 1015.23 1015.11 1014.99 1014.87 1014.83 1014.87 1015.03 1015.15 1015.35 1015.67 1016.03 1016.31 1016.43 1016.51 1016.55 1016.75 1016.83 1016.95 1016.99 1016.95 1016.99 1016.95 1016.99 1017.03 1017.15 1017.19 1017.11 1016.67 1016.59 1015.91 1015.95 1016.07 1015.95 1015.03 1014.39 1014.31 1013.63 1013.07 1012.79 1012.63 1012.23 1012.07 1011.75 1011.47 1011.19 1010.99 1010.87 1010.79 1010.75 1010.71 1010.63 1010.51 1010.43 1010.47 1010.51 1010.59 1010.75 1011.03 1011.39 1011.75 1011.99
1011.79 1012.11 1012.43 1012.79 1013.11 1013.35 1013.51 1013.59 1013.67 1013.63 1013.87 1014.47 1014.75 1014.91 1014.99 1014.91 1014.79 1014.55 1014.51 1014.55 1014.55 1014.67 1014.87 1015.15 1015.51 1015.67 1015.75 1015.83 1015.91 1016.07 1016.19 1016.39 1016.51 1016.71 1016.95 1016.95 1016.91 1017.11 1017.19 1017.03 1016.79 1016.27 1015.71 1015.43 1015.55 1015.71 1015.11 1014.43 1014.19 1013.63 1013.03 1012.75 1012.51 1012.27 1012.07 1011.79 1011.47 1011.19 1010.95 1010.87 1010.79 1010.71 1010.67 1010.67 1010.63 1010.55 1010.43 1010.39 1010.55 1010.79 1011.07 1011.31 1011.59 1011.99
1011.27 1011.55 1011.79 1012.19 1012.55 1012.83 1012.91 1013.03 1012.99 1013.07 1013.19 1013.71 1014.19 1014.51 1014.67 1014.75 1014.63 1014.35 1014.35 1014.47 1014.39 1014.31 1014.31 1014.43 1014.63 1014.91 1015.15 1015.27 1015.35 1015.39 1015.43 1015.47 1015.67 1016.27 1016.55 1016.27 1016.59 1016.87 1016.91 1016.99 1016.51 1016.03 1015.71 1015.23 1015.11 1015.27 1015.07 1014.43 1014.03 1013.71 1012.87 1012.47 1012.23 1012.15 1012.03 1011.79 1011.47 1011.19 1010.99 1010.79 1010.75 1010.67 1010.59 1010.63 1010.67 1010.67 1010.67 1010.51 1010.47 1010.55 1010.91 1011.35 1011.67 1011.99
1010.87 1011.19 1011.47 1011.71 1011.95 1012.19 1012.35 1012.39 1012.35 1012.31 1012.47 1012.87 1013.51 1013.87 1014.15 1014.15 1014.07 1013.79 1014.03 1014.19 1014.35 1014.51 1014.59 1014.47 1014.43 1014.39 1014.43 1014.59 1014.79 1014.95 1014.91 1014.87 1014.83 1015.31 1015.63 1015.83 1016.27 1016.43 1016.55 1016.63 1016.63 1016.19 1015.47 1014.95 1014.91 1015.07 1014.75 1014.67 1014.11 1013.67 1013.11 1012.91 1012.11 1012.15 1012.11 1011.87 1011.55 1011.27 1011.07 1010.95 1010.79 1010.67 1010.55 1010.59 1010.71 1010.79 1010.83 1010.83 1010.83 1010.87 1011.03 1011.27 1011.71 1012.19
1010.39 1010.71 1011.07 1011.27 1011.31 1011.27 1011.43 1011.63 1011.67 1011.59 1011.59 1011.99 1012.71 1013.31 1013.55 1013.55 1013.19 1013.15 1013.59 1013.75 1013.99 1014.23 1014.43 1014.51 1014.59 1014.55 1014.51 1014.47 1014.51 1014.55 1014.59 1014.59 1014.59 1014.71 1015.07 1015.23 1015.59 1015.83 1016.07 1016.31 1016.31 1016.19 1015.63 1014.87 1014.91 1015.23 1014.99 1014.71 1014.39 1013.99 1014.11 1013.99 1013.55 1012.51 1012.23 1011.95 1011.59 1011.31 1011.07 1010.91 1010.83 1010.71 1010.67 1010.67 1010.83 1010.91 1010.99 1011.03 1011.19 1011.35 1011.55 1011.75 1011.91 1012.27
1009.79 1010.11 1010.39 1010.59 1010.71 1010.59 1010.59 1010.79 1010.91 1010.95 1010.83 1011.03 1011.83 1012.43 1012.67 1012.31 1012.23 1012.95 1013.31 1013.47 1013.67 1013.99 1014.23 1014.47 1014.67 1014.71 1014.71 1014.67 1014.63 1014.63 1014.67 1014.63 1014.59 1014.59 1014.71 1014.87 1015.07 1015.31 1015.63 1015.91 1016.19 1016.07 1015.55 1014.91 1015.03 1015.39 1015.51 1014.87 1014.51 1014.31 1014.55 1014.31 1013.99 1013.47 1012.75 1012.31 1011.79 1011.47 1011.19 1010.99 1010.87 1010.83 1010.83 1010.87 1010.95 1011.15 1011.27 1011.35 1011.51 1011.67 1011.87 1012.11 1012.35 1012.51
1009.03 1009.31 1009.55 1009.87 1010.03 1010.11 1010.07 1010.07 1010.19 1010.19 1010.23 1010.19 1010.91 1011.35 1011.31 1011.51 1012.03 1012.35 1012.83 1013.27 1013.63 1013.83 1014.11 1014.39 1014.63 1014.71 1014.71 1014.71 1014.67 1014.63 1014.59 1014.59 1014.55 1014.59 1014.63 1014.59 1014.67 1014.87 1014.95 1015.15 1015.51 1015.83 1015.23 1014.83 1015.11 1015.15 1015.15 1014.95 1014.71 1014.75 1014.71 1014.51 1014.07 1013.91 1013.43 1012.83 1012.15 1011.79 1011.51 1011.27 1011.03 1010.99 1010.95 1010.95 1011.07 1011.27 1011.55 1011.71 1011.87 1011.99 1012.15 1012.23 1012.35 1012.59
1008.27 1008.63 1008.95 1009.15 1009.31 1009.39 1009.43 1009.55 1009.51 1009.55 1009.59 1009.59 1010.03 1010.39 1010.55 1010.95 1011.35 1011.87 1012.67 1013.23 1013.51 1013.75 1013.91 1014.19 1014.35 1014.31 1014.23 1014.23 1014.23 1014.27 1014.31 1014.31 1014.31 1014.35 1014.39 1014.47 1014.47 1014.55 1014.63 1014.71 1014.75 1014.75 1014.55 1014.83 1014.95 1015.11 1015.31 1015.31 1014.91 1015.07 1014.99 1014.67 1014.39 1014.11 1013.95 1013.55 1012.71 1012.11 1011.83 1011.51 1011.39 1011.31 1011.23 1011.15 1011.31 1011.39 1011.63 1011.95 1012.15 1012.19 1012.27 1012.31 1012.35 1012.39
1007.63 1008.07 1008.31 1008.51 1008.63 1008.71 1008.71 1008.75 1008.87 1008.95 1009.03 1009.15 1009.35 1009.63 1009.95 1010.39 1010.91 1011.59 1012.35 1012.87 1013.19 1013.35 1013.55 1013.63 1013.67 1013.63 1013.59 1013.71 1013.87 1013.91 1013.83 1013.83 1013.87 1013.91 1014.03 1014.19 1014.35 1014.43 1014.47 1014.51 1014.51 1014.55 1014.59 1014.71 1014.87 1015.03 1015.19 1015.27 1015.07 1014.87 1014.95 1014.75 1014.59 1014.43 1014.07 1013.35 1013.23 1012.75 1012.43 1011.79 1011.67 1011.67 1011.63 1011.47 1011.43 1011.55 1011.75 1011.99 1012.27 1012.43 1012.51 1012.59 1012.51 1012.35
1007.11 1007.51 1007.87 1008.07 1008.15 1008.27 1008.43 1008.43 1008.39 1008.39 1008.51 1008.55 1008.71 1009.03 1009.43 1009.91 1010.51 1011.11 1011.71 1012.15 1012.55 1012.79 1012.91 1012.95 1012.99 1013.07 1013.15 1013.23 1013.15 1013.07 1013.15 1013.19 1013.43 1013.67 1013.71 1013.87 1014.07 1014.23 1014.31 1014.35 1014.35 1014.35 1014.39 1014.47 1014.63 1014.79 1014.95 1014.99 1014.87 1014.79 1014.83 1014.67 1014.47 1014.23 1014.15 1014.03 1013.39 1012.87 1012.47 1012.19 1011.95 1011.79 1011.91 1011.79 1011.71 1011.71 1011.83 1012.03 1012.15 1012.39 1012.55 1012.63 1012.63 1012.51
1006.67 1006.95 1007.27 1007.51 1007.71 1007.91 1008.03 1008.19 1008.27 1008.27 1008.23 1008.27 1008.43 1008.75 1008.99 1009.43 1009.95 1010.51 1010.99 1011.35 1011.67 1011.95 1012.11 1012.23 1012.35 1012.39 1012.47 1012.63 1012.67 1012.71 1012.83 1013.07 1013.15 1013.19 1013.39 1013.71 1013.95 1014.15 1014.31 1014.39 1014.31 1014.19 1014.19 1014.23 1014.35 1014.51 1014.63 1014.67 1014.55 1014.55 1014.55 1014.39 1014.23 1014.07 1013.95 1013.83 1013.35 1012.99 1012.55 1012.39 1011.99 1011.55 1011.75 1011.71 1011.67 1011.75 1011.75 1011.91 1012.11 1012.35 1012.55 1012.55 1012.59 1012.43
1006.31 1006.63 1006.95 1007.23 1007.47 1007.67 1007.75 1007.75 1007.79 1007.95 1008.03 1008.15 1008.19 1008.43 1008.67 1008.95 1009.31 1009.79 1010.27 1010.59 1010.87 1011.15 1011.51 1011.67 1011.79 1011.87 1011.91 1011.99 1012.15 1012.43 1012.59 1012.75 1012.75 1012.87 1012.95 1013.19 1013.39 1013.75 1013.95 1014.07 1013.99 1013.95 1013.87 1013.95 1014.07 1014.19 1014.35 1014.35 1014.23 1014.27 1014.27 1014.03 1013.95 1013.99 1013.83 1013.71 1013.35 1012.95 1012.55 1012.35 1012.07 1012.23 1011.83 1011.59 1011.55 1011.59 1011.71 1011.79 1011.91 1012.07 1012.15 1012.19 1012.27 1012.27
1006.07 1006.47 1006.79 1007.11 1007.35 1007.59 1007.71 1007.75 1007.79 1007.71 1007.71 1007.79 1007.91 1008.07 1008.27 1008.55 1008.87 1009.27 1009.71 1010.11 1010.43 1010.71 1011.03 1011.31 1011.51 1011.67 1011.79 1011.87 1011.95 1012.03 1012.15 1012.23 1012.27 1012.47 1012.67 1012.75 1012.91 1013.07 1013.39 1013.71 1013.63 1013.63 1013.59 1013.59 1013.75 1013.83 1013.91 1013.95 1013.95 1013.99 1013.99 1013.91 1013.91 1013.71 1013.67 1013.67 1013.43 1012.95 1012.63 1012.47 1012.31 1011.87 1011.83 1011.91 1011.63 1011.59 1011.71 1011.63 1011.67 1012.03 1012.15 1012.15 1012.19 1012.31
1006.19 1006.43 1006.79 1007.07 1007.39 1007.59 1007.75 1007.79 1007.67 1007.51 1007.51 1007.55 1007.55 1007.71 1007.95 1008.27 1008.63 1008.95 1009.39 1009.95 1010.35 1010.59 1010.91 1011.07 1011.23 1011.39 1011.63 1011.79 1011.99 1012.03 1012.03 1011.95 1011.91 1011.99 1012.27 1012.47 1012.71 1012.87 1013.03 1013.11 1013.11 1013.19 1013.23 1013.23 1013.35 1013.43 1013.59 1013.67 1013.75 1013.75 1013.79 1013.79 1013.71 1013.71 1013.91 1013.83 1013.35 1012.95 1012.75 1012.51 1012.43 1012.07 1011.91 1011.87 1011.87 1011.83 1011.67 1011.75 1012.03 1012.19 1012.47 1012.55 1012.55 1012.59
1006.59 1006.51 1006.67 1006.95 1007.23 1007.47 1007.67 1007.75 1007.67 1007.43 1007.27 1007.27 1007.31 1007.43 1007.75 1008.11 1008.43 1008.71 1009.15 1009.63 1010.11 1010.43 1010.59 1010.91 1011.15 1011.35 1011.55 1011.71 1011.95 1012.11 1012.11 1011.99 1011.87 1011.79 1011.83 1012.03 1012.19 1012.51 1012.67 1012.71 1012.71 1012.67 1012.75 1012.79 1012.95 1013.07 1013.19 1013.47 1013.63 1013.71 1013.71 1013.67 1013.59 1013.59 1013.55 1013.51 1013.23 1013.07 1012.83 1012.67 1012.59 1012.31 1012.07 1011.99 1011.95 1012.11 1012.07 1012.19 1012.39 1012.83 1013.03 1013.23 1013.31 1013.23
1006.71 1006.79 1006.83 1006.79 1007.03 1007.27 1007.39 1007.59 1007.55 1007.39 1007.15 1007.03 1007.11 1007.31 1007.55 1007.95 1008.23 1008.59 1008.99 1009.55 1009.95 1010.31 1010.67 1010.95 1011.15 1011.35 1011.59 1011.75 1011.87 1011.99 1012.03 1011.99 1011.91 1011.91 1011.83 1011.79 1011.87 1011.95 1012.03 1012.19 1012.27 1012.39 1012.47 1012.55 1012.63 1012.75 1012.99 1013.27 1013.43 1013.55 1013.59 1013.59 1013.63 1013.39 1013.31 1013.23 1013.15 1012.91 1012.87 1012.79 1012.71 1012.51 1012.15 1012.11 1012.07 1012.23 1012.27 1012.39 1012.59 1013.07 1013.39 1013.63 1013.87 1014.03
1006.87 1006.71 1006.87 1006.99 1006.91 1006.95 1007.23 1007.27 1007.35 1007.23 1006.99 1006.83 1006.87 1007.15 1007.55 1007.91 1008.19 1008.51 1008.95 1009.35 1009.71 1010.19 1010.59 1010.87 1011.11 1011.31 1011.47 1011.59 1011.63 1011.71 1011.79 1011.79 1011.91 1011.95 1011.99 1011.99 1011.91 1011.91 1011.95 1011.95 1011.95 1011.91 1011.95 1012.03 1012.15 1012.39 1012.67 1012.99 1013.11 1013.15 1013.31 1013.39 1013.51 1013.59 1013.31 1012.91 1012.95 1013.03 1013.07 1013.03 1012.83 1012.59 1012.35 1012.23 1012.31 1012.43 1012.51 1012.67 1012.83 1013.03 1013.55 1013.71 1013.99 1014.35
1006.83 1006.83 1006.83 1006.91 1006.99 1006.79 1006.75 1006.99 1007.11 1007.03 1006.79 1006.67 1006.71 1006.99 1007.35 1007.87 1008.27 1008.51 1008.83 1009.19 1009.67 1010.07 1010.39 1010.63 1010.87 1011.11 1011.23 1011.35 1011.51 1011.63 1011.71 1011.75 1011.83 1011.87 1011.99 1012.07 1012.19 1012.11 1012.03 1011.95 1011.95 1011.91 1011.91 1011.91 1011.99 1012.19 1012.47 1012.63 1012.83 1012.87 1012.99 1013.15 1013.27 1013.51 1013.31 1012.99 1012.83 1012.83 1012.95 1013.07 1013.03 1012.87 1012.71 1012.51 1012.47 1012.59 1012.91 1013.03 1013.11 1013.31 1013.63 1013.87 1014.07 1014.43
1006.95 1006.99 1006.99 1006.95 1006.91 1006.87 1006.67 1006.63 1006.83 1006.83 1006.63 1006.51 1006.67 1006.95 1007.27 1007.67 1008.19 1008.63 1008.99 1009.31 1009.67 1010.03 1010.27 1010.47 1010.71 1010.91 1011.11 1011.27 1011.47 1011.71 1011.83 1011.83 1011.87 1011.87 1011.87 1011.95 1012.03 1012.11 1012.11 1012.03 1011.91 1011.83 1011.83 1011.79 1012.03 1012.15 1012.31 1012.35 1012.47 1012.59 1012.71 1012.91 1013.11 1013.19 1013.19 1012.79 1013.03 1012.75 1012.67 1012.91 1013.07 1012.95 1012.99 1012.91 1012.91 1012.91 1013.15 1013.51 1013.59 1013.91 1013.95 1014.11 1014.43 1014.79
1006.79 1006.99 1007.03 1006.95 1006.79 1006.79 1006.75 1006.63 1006.39 1006.51 1006.47 1006.39 1006.59 1006.99 1007.43 1007.87 1008.31 1008.79 1008.99 1009.19 1009.59 1009.91 1010.23 1010.47 1010.67 1010.87 1011.11 1011.31 1011.43 1011.63 1011.79 1011.87 1011.95 1011.91 1011.91 1011.95 1011.95 1011.95 1011.95 1011.83 1011.79 1011.67 1011.67 1011.75 1011.87 1011.99 1012.11 1012.15 1012.15 1012.27 1012.35 1012.59 1012.75 1012.63 1012.55 1012.95 1012.71 1012.47 1012.59 1012.59 1012.83 1013.03 1013.07 1013.15 1013.19 1013.35 1013.43 1013.71 1014.31 1014.59 1014.71 1014.71 1014.79 1014.95
1006.55 1006.75 1006.83 1006.75 1006.63 1006.59 1006.59 1006.51 1006.43 1006.19 1006.39 1006.35 1006.51 1006.99 1007.55 1007.99 1008.35 1008.63 1008.95 1009.35 1009.67 1009.91 1010.11 1010.35 1010.67 1010.99 1011.19 1011.35 1011.47 1011.67 1011.79 1011.83 1011.87 1011.91 1011.91 1011.95 1011.95 1011.91 1011.91 1011.75 1011.67 1011.55 1011.51 1011.51 1011.59 1011.75 1011.91 1011.91 1011.95 1011.95 1012.07 1012.03 1011.95 1012.07 1012.35 1012.59 1012.75 1012.79 1012.63 1012.59 1012.63 1012.75 1012.99 1013.19 1013.23 1013.35 1013.67 1014.03 1014.15 1014.31 1014.95 1014.99 1015.15 1015.43
1006.35 1006.59 1006.67 1006.63 1006.51 1006.39 1006.35 1006.31 1006.35 1006.23 1006.15 1006.39 1006.63 1007.03 1007.47 1007.87 1008.27 1008.59 1008.99 1009.31 1009.59 1009.95 1010.27 1010.55 1010.79 1010.95 1011.11 1011.35 1011.47 1011.63 1011.71 1011.83 1011.91 1011.99 1012.07 1012.11 1012.11 1012.03 1012.03 1011.91 1011.79 1011.59 1011.59 1011.59 1011.51 1011.59 1011.79 1011.67 1011.47 1011.39 1011.51 1011.75 1012.07 1012.31 1012.51 1012.71 1012.75 1012.47 1012.43 1012.59 1012.71 1012.75 1013.07 1013.19 1013.23 1013.35 1013.39 1013.87 1013.99 1014.15 1014.47 1014.75 1015.15 1015.43
1006.07 1006.23 1006.31 1006.43 1006.55 1006.47 1006.35 1006.31 1006.15 1006.15 1006.11 1006.35 1006.75 1007.19 1007.59 1007.95 1008.23 1008.59 1008.95 1009.27 1009.63 1009.99 1010.31 1010.63 1010.91 1011.07 1011.23 1011.43 1011.55 1011.71 1011.75 1011.83 1011.91 1011.99 1011.99 1012.07 1012.19 1012.23 1012.23 1012.11 1012.11 1011.83 1011.67 1011.55 1011.47 1011.39 1011.19 1011.27 1011.35 1011.51 1011.75 1011.99 1012.19 1012.35 1012.47 1012.43 1012.51 1012.43 1012.79 1012.91 1012.87 1012.83 1013.07 1013.27 1013.39 1013.47 1013.59 1013.79 1013.95 1014.19 1014.59 1014.99 1015.11 1015.43
1005.91 1006.07 1006.19 1006.31 1006.43 1006.51 1006.47 1006.47 1006.35 1006.19 1006.35 1006.43 1006.79 1007.15 1007.63 1008.11 1008.47 1008.83 1009.19 1009.55 1009.91 1010.23 1010.47 1010.75 1011.03 1011.11 1011.27 1011.51 1011.67 1011.75 1011.83 1011.91 1011.99 1012.07 1012.11 1012.11 1012.11 1012.11 1012.07 1011.91 1011.79 1011.67 1011.63 1011.51 1011.35 1011.31 1011.31 1011.43 1011.35 1011.51 1011.79 1011.99 1012.03 1012.07 1012.27 1012.31 1012.31 1012.43 1012.95 1013.23 1013.11 1013.07 1013.19 1013.39 1013.51 1013.67 1013.75 1013.83 1013.91 1013.83 1013.83 1014.07 1014.43 1014.95
1006.31 1005.95 1006.15 1006.27 1006.39 1006.51 1006.63 1006.67 1006.75 1006.47 1006.55 1006.67 1006.95 1007.27 1007.63 1008.11 1008.59 1008.95 1009.23 1009.59 1009.95 1010.23 1010.59 1010.79 1011.07 1011.15 1011.35 1011.55 1011.75 1011.91 1011.99 1012.03 1012.15 1012.19 1012.27 1012.35 1012.27 1012.23 1012.19 1012.03 1011.83 1011.67 1011.59 1011.51 1011.35 1011.27 1011.15 1011.35 1011.43 1011.39 1011.71 1011.91 1011.91 1012.03 1012.11 1012.23 1012.39 1012.35 1012.87 1013.27 1013.31 1013.15 1013.35 1013.63 1013.79 1013.87 1013.95 1014.07 1014.11 1013.99 1013.99 1014.03 1014.07 1014.07
1007.51 1007.15 1006.91 1006.83 1006.87 1006.91 1006.99 1007.11 1007.15 1007.03 1006.87 1007.03 1007.19 1007.55 1007.95 1008.31 1008.79 1009.27 1009.59 1009.87 1010.15 1010.47 1010.71 1010.87 1011.07 1011.27 1011.43 1011.67 1011.83 1011.91 1012.07 1012.19 1012.23 1012.31 1012.35 1012.39 1012.35 1012.27 1012.19 1012.15 1012.15 1012.03 1011.91 1011.71 1011.51 1011.19 1011.15 1011.11 1011.27 1011.55 1011.43 1011.59 1011.79 1011.79 1011.83 1012.03 1012.11 1012.35 1012.83 1013.23 1013.27 1013.27 1013.39 1013.59 1013.79 1013.95 1014.19 1014.43 1014.51 1014.31 1014.19 1014.19 1014.15 1014.11
Wind_Speed
6 6 7 8 8 6 5 5 5 4 3 3 3 4 4 5 5 4 7 7 5 3 3 4 3 1 3 4 4 4 3 5 8 3 3 4 4 11 18 20 19 19 21 21 21 22 22 21 22 21 21 22 21 22 22 23 26 27 29 32 34 33 29 23 21 16 11 10 11 4 14 11 10 13
7 7 7 6 7 5 6 5 6 5 4 4 4 4 3 4 6 4 7 9 5 3 3 3 4 2 4 3 4 3 5 10 10 4 3 4 4 15 18 17 18 19 20 20 20 21 21 22 22 22 21 21 23 22 22 22 24 27 29 32 33 30 29 28 25 17 14 15 12 11 5 12 12 12
6 7 9 7 7 5 6 6 6 6 5 5 6 4 4 5 5 5 5 9 4 4 6 4 1 1 2 4 4 5 4 6 9 6 5 5 10 17 12 16 17 19 19 20 20 19 21 21 21 21 21 21 22 23 22 22 22 25 28 31 32 30 28 28 29 20 16 14 15 12 10 9 6 13
7 8 9 9 8 6 5 6 6 6 6 5 5 5 5 5 6 5 6 9 11 4 3 2 2 3 4 4 6 5 4 5 11 6 6 7 12 8 6 11 16 18 19 19 19 20 20 21 21 21 21 22 22 23 23 22 22 23 27 30 32 30 27 28 28 24 18 19 17 15 14 13 12 6
8 8 7 8 8 6 7 5 5 5 6 5 5 4 5 5 4 5 6 8 10 7 3 4 4 2 2 4 2 4 4 5 5 6 5 6 6 6 6 7 12 17 18 19 20 19 19 19 19 20 20 20 21 21 22 22 20 22 25 27 29 29 28 27 28 27 21 18 21 22 18 15 16 13
9 7 8 8 7 5 8 6 6 6 4 5 5 5 6 6 6 5 6 7 7 11 3 4 2 3 1 4 1 3 5 5 5 7 6 5 5 6 7 7 7 16 19 19 19 18 17 17 18 18 18 17 18 19 20 20 19 19 22 24 26 27 26 26 26 26 26 19 23 24 24 23 21 18
9 9 9 9 7 4 5 6 7 5 6 5 5 5 4 6 6 6 7 6 8 9 7 3 4 4 3 3 3 3 3 4 5 7 7 6 6 6 8 8 7 13 18 18 18 17 16 16 17 17 17 16 16 16 17 17 16 17 19 22 22 24 26 25 24 26 26 26 22 23 23 23 22 21
9 10 9 9 8 5 6 6 5 5 5 5 4 4 4 4 5 6 6 6 7 5 8 3 4 4 3 2 2 3 4 6 7 7 8 7 7 7 7 8 8 10 17 18 17 16 16 16 16 17 17 16 15 14 15 16 15 15 17 19 19 21 24 26 25 24 23 25 24 21 22 20 20 19
11 10 10 9 7 7 8 7 7 5 5 5 5 5 4 4 3 4 5 6 5 6 7 5 3 3 2 2 2 2 4 6 6 7 8 7 7 7 7 8 8 13 17 16 15 14 15 15 16 17 17 16 15 14 14 15 14 14 15 17 18 18 20 22 24 23 22 22 21 22 21 20 19 18
11 10 10 9 8 8 9 9 8 7 8 6 6 6 6 5 4 4 4 4 5 5 6 4 4 2 3 3 3 3 3 5 7 7 7 6 5 6 7 7 7 6 6 5 6 8 10 13 17 18 17 17 16 13 12 13 13 12 14 16 17 17 17 18 20 20 20 19 20 20 21 20 18 17
11 10 9 9 9 10 9 9 9 7 7 7 8 8 7 6 5 5 5 4 5 5 5 4 4 4 3 3 5 2 2 4 5 7 8 7 4 5 6 7 6 6 8 9 13 12 12 14 12 14 16 16 15 14 12 12 12 11 11 12 14 14 14 14 15 17 17 17 18 19 19 19 18 17
9 9 9 9 9 10 10 9 9 8 8 6 8 7 7 7 7 8 6 5 5 4 4 5 4 3 3 2 3 1 1 3 4 4 4 6 6 6 6 6 7 7 6 8 7 8 8 8 11 13 14 14 15 14 12 11 11 11 10 10 11 12 11 11 11 13 15 16 16 17 17 18 17 17
9 9 9 9 9 9 11 13 12 11 10 7 8 7 6 7 7 7 7 7 6 5 4 5 3 4 4 4 3 3 3 3 6 3 1 4 5 5 6 6 6 6 6 6 7 6 7 7 7 7 7 7 10 10 11 8 10 10 9 8 9 9 10 8 9 8 10 13 14 14 15 15 16 15
9 10 9 8 12 14 15 15 17 19 19 17 11 7 7 8 8 7 7 7 6 6 7 7 6 6 8 5 4 4 3 4 3 3 3 4 5 5 5 6 3 5 4 7 9 8 6 7 7 6 7 7 7 6 6 5 7 8 9 9 8 8 8 7 7 5 5 8 11 12 12 13 13 14
10 9 9 8 10 12 13 14 18 20 22 22 22 20 16 12 10 8 8 7 6 7 7 6 4 7 8 6 4 4 5 3 3 3 2 4 4 4 4 7 5 3 6 7 9 9 7 6 7 7 6 7 7 7 6 12 11 9 9 9 8 7 7 7 6 4 2 1 6 9 10 11 11 12
9 9 9 8 8 9 10 9 10 15 20 22 22 22 22 21 21 17 12 9 7 7 7 7 8 5 7 5 4 5 2 5 3 4 3 4 3 4 4 3 5 4 7 7 7 10 8 5 6 6 6 6 6 7 11 14 12 9 7 7 8 8 6 6 6 4 2 3 3 3 5 6 7 8
10 9 8 8 8 8 14 12 10 9 10 18 22 21 22 22 22 21 22 19 10 7 8 8 7 7 5 5 6 4 4 2 4 2 2 2 3 3 5 4 5 6 4 6 7 9 10 5 6 6 6 5 5 7 10 14 13 10 6 6 7 7 6 4 4 4 4 3 6 4 1 2 3 5
10 10 9 9 9 8 8 9 11 10 10 10 11 12 12 11 16 20 22 21 22 14 9 8 8 6 4 7 5 5 4 3 4 4 4 3 4 5 6 5 6 6 3 4 5 7 8 3 5 6 6 5 5 5 9 14 13 11 7 4 5 6 6 4 3 3 4 4 4 7 6 2 1 2
11 11 10 10 10 9 9 9 11 11 11 11 10 10 10 11 10 11 11 11 10 11 9 8 7 8 7 7 6 4 5 4 5 5 5 4 3 3 3 5 4 7 3 2 2 4 7 5 5 6 6 6 6 5 8 12 13 12 9 6 5 5 5 5 3 2 3 4 5 5 9 7 4 3
11 10 11 10 10 10 10 13 23 18 11 10 11 12 11 9 9 10 13 16 15 11 9 9 10 8 9 11 8 8 6 5 4 3 4 2 3 3 4 5 5 4 5 3 3 2 5 5 5 7 6 5 6 6 6 8 11 11 12 10 7 5 5 4 4 3 3 4 5 6 7 9 9 5
11 11 11 11 10 11 11 17 22 23 21 12 13 12 11 10 9 8 9 18 22 21 20 19 19 19 19 18 18 17 17 12 8 5 3 6 4 4 4 4 3 5 4 2 4 2 6 5 4 7 6 5 5 5 5 6 8 11 11 11 10 7 5 5 4 4 5 5 5 6 7 7 8 9
11 12 19 15 12 12 12 20 22 24 20 11 12 12 12 13 12 11 8 7 11 20 22 22 21 19 18 18 17 16 17 18 15 8 9 7 5 5 4 4 3 5 5 4 3 2 4 5 5 5 6 4 2 2 4 6 6 8 8 10 11 8 6 6 5 4 5 5 6 6 7 6 6 6
8 10 15 21 17 14 16 23 22 24 21 10 12 12 12 11 12 12 8 9 9 8 8 8 9 10 15 13 11 11 19 18 14 10 11 6 7 7 6 6 3 4 4 3 0 1 3 4 5 4 6 5 3 0 5 7 6 5 4 5 5 6 4 5 4 5 5 6 7 7 8 8 5 4
9 10 10 16 24 24 23 23 25 23 25 13 12 11 10 10 14 8 8 9 8 8 9 9 8 7 5 5 5 5 7 10 12 9 9 8 7 7 6 6 6 4 3 3 4 4 3 1 4 4 5 5 5 7 7 8 6 6 4 2 1 3 2 3 3 3 5 6 7 8 9 9 5 3
9 10 11 10 19 25 24 23 24 25 25 22 14 14 12 14 10 8 8 11 15 8 8 8 6 6 5 5 4 5 4 5 4 4 5 7 7 7 6 6 5 7 7 8 4 3 3 4 5 4 4 2 4 6 7 6 6 7 5 1 1 1 1 0 1 1 1 4 6 8 9 10 9 6
9 10 10 10 16 25 25 24 24 25 24 26 14 16 22 21 17 10 8 6 7 7 6 5 5 6 6 6 6 6 6 6 7 6 5 6 7 7 7 7 7 5 9 6 5 2 3 4 3 5 3 5 4 5 7 7 5 8 6 4 2 0 2 1 0 0 2 2 1 0 1 7 11 12
10 10 11 12 20 23 25 25 26 25 26 23 15 24 26 23 22 15 6 7 6 7 6 6 7 8 7 6 6 6 7 6 6 6 6 6 6 6 7 7 7 9 9 4 2 2 2 4 3 3 5 5 6 7 5 5 7 8 8 6 3 3 1 3 1 2 2 3 4 6 6 7 8 11
9 7 8 10 19 21 20 22 24 25 24 16 22 24 25 23 19 9 7 7 8 8 7 7 7 7 6 6 5 6 7 7 7 8 7 6 6 6 6 7 8 8 7 5 4 4 3 4 6 4 3 5 6 6 7 5 5 5 7 5 3 4 3 2 1 0 1 2 2 2 2 1 0 1
10 12 17 19 21 21 21 22 21 20 23 28 24 22 23 21 10 10 8 8 8 8 8 8 7 6 7 8 9 8 7 7 5 3 4 5 6 6 7 7 6 7 6 5 5 4 5 5 7 6 4 4 5 5 5 6 6 6 7 7 5 4 3 2 2 1 1 2 3 4 5 5 2 3
18 22 22 23 23 20 18 15 13 10 10 19 22 20 22 13 10 10 9 9 9 8 8 8 8 7 6 6 7 7 5 4 6 6 5 4 4 4 5 4 6 5 6 6 5 5 5 6 6 5 5 5 4 5 4 6 6 6 5 5 6 2 3 3 3 2 3 3 4 5 3 4 2 3
13 17 17 12 15 13 17 16 14 14 13 12 12 10 12 10 10 10 10 9 9 8 8 7 7 6 7 6 6 6 5 6 5 5 5 5 5 6 5 6 6 5 6 6 6 5 5 6 6 5 5 4 3 4 5 5 6 6 6 5 5 4 4 3 4 4 3 4 5 5 4 5 5 5
10 10 12 15 11 9 10 10 8 8 8 9 9 8 8 8 9 11 13 11 8 7 7 6 5 4 3 3 3 3 5 7 6 5 6 5 5 5 6 5 6 5 5 5 5 6 7 7 7 6 6 5 5 3 3 5 6 5 6 5 5 4 4 4 3 5 5 3 6 6 5 5 6 5
6 9 9 8 8 8 8 6 6 6 6 7 8 9 8 7 9 9 8 8 7 7 6 7 6 6 2 1 1 0 1 3 6 6 6 5 5 4 5 6 5 5 5 4 5 6 6 6 6 6 6 4 4 4 4 5 5 6 6 6 6 5 5 4 4 3 3 6 5 5 6 6 6 5
0 5 9 8 8 8 8 7 7 6 5 6 7 7 8 8 8 9 9 8 7 7 7 6 6 5 3 2 1 1 2 2 2 3 6 6 7 6 6 7 6 6 5 4 5 5 4 3 2 2 3 3 1 3 4 5 5 4 6 5 6 5 4 3 3 4 5 4 4 5 4 5 5 5
5 3 4 6 9 8 7 7 7 6 5 6 5 7 7 8 9 9 9 8 8 8 6 6 6 5 5 4 3 3 3 3 2 1 1 1 4 6 6 7 6 6 5 5 5 4 4 3 4 3 2 2 2 3 7 6 4 4 2 5 5 4 3 1 0 4 5 6 5 3 2 4 5 4
5 5 4 4 4 8 8 8 7 7 6 6 6 7 7 8 8 9 8 8 8 7 7 6 7 6 6 5 4 3 1 2 0 0 0 0 0 1 2 4 5 5 5 6 6 5 5 4 5 4 2 2 0 3 2 4 6 2 3 3 3 3 2 1 2 4 5 4 3 3 4 0 0 3
5 4 5 5 5 4 7 7 7 7 6 6 6 7 8 8 7 7 8 9 8 7 7 7 7 6 6 5 5 4 4 3 3 1 1 1 0 1 1 1 3 3 4 4 4 5 4 5 5 4 3 2 2 4 4 1 3 5 4 5 4 2 1 0 2 4 3 2 4 4 3 2 0 1
5 5 5 5 6 6 3 5 8 8 6 6 6 7 8 8 8 7 7 7 7 6 6 7 6 5 6 5 5 5 4 4 3 3 3 1 1 2 2 3 2 3 5 4 3 4 5 5 5 5 5 4 3 4 6 1 1 5 6 6 5 5 0 1 1 2 2 4 5 1 2 5 2 1
6 6 6 6 7 6 6 4 6 8 6 6 7 7 7 7 7 7 7 7 7 6 6 6 6 5 5 5 5 4 4 3 3 3 2 1 1 1 1 2 3 2 2 3 3 4 5 6 6 6 6 5 6 7 5 3 4 5 5 9 6 4 2 2 2 1 4 4 5 4 5 4 8 10
7 6 6 6 7 7 7 7 4 6 5 5 7 7 8 8 8 7 7 6 6 6 6 6 5 4 3 4 3 3 2 3 4 3 2 1 1 2 2 2 3 3 3 3 4 4 5 5 5 5 6 7 7 6 5 3 1 1 1 4 11 9 5 2 2 3 0 0 3 6 4 2 3 0
7 6 6 5 4 5 9 7 5 4 6 5 7 8 8 8 8 7 7 7 6 7 5 6 6 5 5 4 3 4 4 2 1 1 1 1 2 3 3 4 3 2 2 2 3 3 5 6 9 11 9 6 2 5 3 2 2 2 3 5 5 10 6 5 3 3 2 3 4 6 5 4 4 3
6 7 6 7 6 4 2 3 5 5 6 7 8 7 7 7 7 8 8 7 7 6 6 6 6 5 5 4 4 4 4 4 3 2 3 2 2 3 5 3 3 3 3 3 3 3 4 4 5 3 2 4 4 4 4 4 4 3 0 1 2 6 9 9 8 5 2 5 5 4 2 3 4 3
5 5 6 6 6 5 3 3 3 5 5 7 7 8 8 7 7 7 6 6 6 6 6 6 5 6 5 4 4 4 3 3 2 2 1 1 1 2 2 3 3 4 4 5 5 4 4 1 3 4 4 5 5 5 5 5 5 2 2 1 1 2 5 8 10 10 9 5 3 1 3 3 4 3
3 4 5 5 6 5 1 1 1 3 6 6 7 7 8 8 7 7 6 7 7 6 5 6 6 6 6 4 4 3 3 2 2 2 2 2 2 2 3 3 4 3 3 3 4 5 5 2 3 5 5 4 4 5 7 6 4 5 4 3 2 5 7 5 5 7 7 9 8 6 6 4 2 4
7 5 4 4 3 3 3 3 2 2 5 6 6 7 6 7 7 6 5 5 5 5 5 6 5 5 4 4 5 4 3 3 2 1 1 2 2 3 2 2 2 3 4 4 4 4 2 3 1 4 4 4 5 6 6 6 6 5 4 6 7 6 5 5 5 5 4 3 7 5 6 6 6 5
Wind_Direction
236 241 239 243 246 236 232 235 225 217 204 194 193 187 201 175 230 247 271 247 258 221 210 254 284 90 30 360 345 351 331 319 322 315 315 305 296 311 313 313 315 314 314 318 321 321 321 320 319 318 319 321 321 320 322 330 337 337 335 329 330 331 348 5 20 38 58 75 72 137 175 177 155 119
241 243 246 244 251 242 229 232 229 221 209 211 205 211 202 178 206 204 247 269 201 256 216 211 257 346 340 344 331 328 322 317 322 312 303 304 303 312 313 316 315 313 314 317 319 319 319 319 317 316 319 319 320 322 326 333 337 339 332 330 326 330 349 9 7 26 46 65 70 62 111 170 158 140
233 242 248 246 250 242 242 236 236 238 225 219 210 216 206 212 203 212 221 266 250 188 241 239 241 287 296 321 317 317 303 310 321 316 306 303 302 309 310 310 310 311 313 314 317 317 318 317 316 319 318 323 320 325 326 332 337 336 330 328 325 331 350 5 6 14 37 67 69 72 65 71 133 148
235 241 243 242 245 242 243 240 234 234 235 219 216 215 213 218 212 202 215 237 261 211 219 240 269 300 308 315 315 311 318 323 327 318 313 303 309 303 297 302 308 309 311 313 313 315 315 316 318 319 323 320 322 322 324 328 334 333 331 327 323 332 348 2 6 5 38 52 71 74 73 76 73 75
232 233 239 241 242 239 240 236 237 237 231 226 225 213 215 224 215 200 214 241 264 259 193 238 261 262 283 296 295 310 315 316 315 320 322 319 312 303 299 300 306 309 309 309 310 310 312 313 316 319 319 321 318 318 319 323 331 335 330 324 323 333 346 359 3 7 12 55 58 61 65 70 73 71
230 231 234 238 238 230 240 231 233 226 228 222 219 221 213 228 231 209 214 239 243 268 235 268 263 280 223 279 313 306 315 312 321 318 316 313 308 304 307 306 301 305 305 307 306 308 311 314 317 316 317 316 315 312 313 318 328 330 326 322 325 333 345 354 1 5 5 37 55 59 55 57 64 70
227 231 232 235 228 226 235 234 232 224 227 218 218 223 216 226 226 215 209 217 246 258 266 221 266 258 267 262 293 314 313 312 310 309 310 312 307 305 299 297 295 299 303 303 307 307 312 314 314 313 315 316 317 315 316 318 322 324 322 321 328 336 345 351 358 5 7 13 43 48 50 46 44 54
221 225 230 230 226 224 231 232 231 226 219 215 214 221 231 223 232 224 216 213 231 247 268 247 243 254 254 253 287 310 315 315 313 305 305 302 301 293 294 297 290 297 300 306 307 310 310 312 311 312 311 312 312 315 313 317 323 326 323 320 329 341 347 350 356 360 7 12 18 39 42 42 40 34
219 221 224 226 223 221 230 233 232 221 221 219 214 223 230 230 237 241 228 228 218 237 246 258 229 245 252 259 275 316 312 304 296 298 291 298 294 298 294 292 296 295 304 306 313 310 314 314 313 310 310 309 310 307 303 303 307 316 327 327 334 344 351 352 352 353 359 7 12 26 31 33 37 34
218 220 222 223 219 219 223 231 231 228 228 222 222 226 228 228 238 247 254 233 224 222 238 229 259 239 252 280 266 260 269 292 301 294 293 290 293 299 298 293 291 300 296 309 295 315 311 311 310 311 308 308 308 310 308 301 301 310 317 328 335 341 345 349 347 347 352 8 11 23 28 26 29 31
219 218 219 220 217 219 221 226 226 227 228 224 230 229 229 229 226 236 241 242 232 228 235 246 237 256 253 235 266 243 239 271 273 293 298 297 295 301 305 305 314 308 308 307 316 315 314 315 316 315 317 318 314 313 314 310 310 312 318 321 327 335 336 341 344 342 348 6 22 21 23 27 22 27
217 217 218 218 218 218 222 223 226 220 226 219 228 226 224 228 229 233 231 235 232 230 230 230 247 237 246 258 243 287 345 305 296 273 279 298 315 309 299 303 308 310 311 317 313 316 319 321 322 323 323 320 322 320 313 307 304 307 314 317 314 318 325 332 334 337 342 354 16 28 28 25 20 24
218 217 217 218 218 218 219 219 221 219 216 208 219 220 209 217 216 226 227 226 223 232 229 252 241 250 253 241 242 270 260 255 256 266 281 291 300 297 305 298 289 297 306 322 323 325 326 330 320 321 318 315 321 320 316 300 293 299 310 316 314 303 302 312 322 333 344 347 6 27 30 32 20 12
219 218 216 216 216 218 219 221 221 223 224 219 213 211 201 211 211 215 218 216 217 223 230 239 239 251 248 242 218 231 235 232 262 285 295 301 297 310 300 298 280 285 339 339 328 319 327 318 318 318 310 311 318 320 323 289 282 285 300 310 308 293 282 285 301 306 346 355 353 15 26 31 32 15
217 219 218 217 220 221 223 223 224 226 230 232 230 225 213 205 204 209 213 219 204 212 228 230 217 232 248 240 212 227 232 233 222 237 257 274 291 308 319 323 315 348 3 348 325 314 315 326 314 309 306 305 306 316 304 317 327 301 298 303 303 288 263 266 262 281 275 37 360 359 15 21 29 26
215 216 216 218 216 220 220 222 226 229 232 233 234 233 231 228 221 213 204 206 207 207 218 222 225 213 234 228 210 234 230 244 262 265 270 263 277 283 305 293 301 299 5 331 324 305 306 321 300 302 297 295 300 298 308 318 324 327 304 296 296 291 269 249 255 249 238 165 122 23 3 12 26 38
214 211 214 217 218 218 220 221 222 224 232 236 236 235 234 231 230 228 224 217 206 197 210 219 223 214 210 218 228 207 206 178 214 259 269 267 279 298 303 293 294 304 333 332 319 304 298 317 301 302 298 303 298 304 310 314 319 324 316 290 292 298 296 249 236 232 218 192 152 142 72 2 26 40
210 211 210 214 219 217 217 220 220 220 223 226 233 234 230 225 228 230 229 227 221 208 205 207 220 222 195 221 218 221 218 198 214 214 246 245 266 270 274 295 300 300 326 292 291 291 292 306 303 303 303 307 305 300 307 319 323 319 326 313 282 298 307 304 234 220 213 202 175 157 154 205 165 90
207 208 209 213 220 217 216 217 217 216 215 215 221 229 230 220 216 219 227 226 219 214 201 207 213 219 214 222 223 221 217 216 219 197 212 227 245 263 299 305 294 295 270 215 219 271 291 325 319 300 302 308 305 299 305 312 319 323 321 326 325 293 294 304 301 219 199 199 193 179 168 174 191 168
203 202 204 211 217 216 218 220 225 221 211 209 215 222 230 231 221 217 220 225 225 216 202 199 205 211 211 214 213 218 218 225 227 212 222 250 253 289 285 287 308 294 280 201 183 257 290 296 302 305 307 301 303 303 303 302 311 319 321 315 298 295 293 283 287 275 227 201 199 200 193 179 176 183
200 200 200 206 211 215 219 222 224 224 215 206 212 215 221 227 231 230 219 227 230 229 227 218 209 216 223 232 233 231 229 222 215 206 219 238 216 225 273 286 300 288 302 258 168 210 284 303 302 309 304 309 294 308 304 301 306 306 310 311 303 278 261 260 261 260 259 249 231 217 207 200 179 181
200 200 201 200 205 211 219 224 224 222 219 198 200 208 214 218 224 228 218 218 232 239 236 235 230 225 226 232 235 233 231 230 220 190 213 220 172 219 227 262 264 286 301 268 185 184 258 303 316 301 296 314 293 301 318 324 313 319 315 310 307 284 245 244 237 236 242 243 250 253 239 219 178 172
182 197 206 207 206 210 218 224 225 220 216 190 187 202 206 212 217 218 199 208 215 227 250 261 251 242 233 230 227 228 237 240 239 190 208 192 177 204 213 225 285 312 294 272 89 93 290 343 295 331 339 344 289 310 333 333 318 311 297 291 294 305 290 266 260 246 226 223 223 226 240 239 199 149
185 189 197 211 215 218 220 221 223 223 216 196 181 191 202 207 220 200 193 203 204 216 223 236 244 254 258 254 241 239 237 240 242 224 201 198 190 201 202 204 204 219 249 269 46 35 288 285 312 7 21 338 334 327 339 328 331 321 310 290 282 290 338 12 35 349 270 239 218 210 212 222 195 172
182 190 198 202 214 221 223 221 220 222 221 208 186 194 205 211 207 160 194 207 213 214 216 228 237 245 256 257 256 254 244 245 241 238 197 202 197 200 204 207 211 237 256 260 306 7 286 303 317 11 355 335 287 325 314 321 325 347 336 360 231 306 85 11 83 69 93 249 236 219 212 210 194 171
188 195 196 200 210 218 225 225 222 221 223 216 186 198 207 213 206 187 193 185 193 207 209 207 218 231 238 240 243 239 238 233 229 227 221 208 197 205 206 201 207 222 257 263 277 247 294 310 331 349 341 338 314 332 328 330 331 358 356 5 44 195 149 197 95 240 120 133 135 102 258 222 207 178
192 195 201 206 210 217 223 224 223 222 221 223 200 199 208 212 210 201 165 171 186 199 202 203 215 223 220 221 222 225 229 229 220 218 216 214 209 206 210 218 207 219 243 234 218 257 300 277 319 333 316 316 323 322 317 325 341 347 349 350 357 37 30 120 131 235 169 143 171 201 217 219 217 196
187 190 191 194 207 215 221 221 220 221 221 223 218 203 205 205 201 177 165 169 186 194 198 201 209 213 213 211 218 225 221 219 209 211 209 206 209 210 218 224 230 233 245 244 238 234 225 258 284 276 280 305 318 324 316 318 318 333 342 343 26 40 20 79 127 212 180 139 118 152 139 169 334 161
191 192 207 214 219 221 225 230 231 225 224 223 223 211 201 200 183 177 173 177 176 190 194 201 206 209 211 206 213 215 209 215 196 193 211 204 200 205 215 223 230 236 237 234 225 220 210 227 253 272 278 275 290 297 310 306 311 329 341 349 350 349 1 24 84 139 116 102 136 135 155 177 150 152
191 204 213 219 222 224 225 226 228 232 228 231 232 219 201 191 181 177 185 184 188 190 193 195 199 205 201 206 216 215 210 195 201 192 191 180 203 189 204 226 245 241 235 231 222 205 203 218 240 249 262 267 265 280 292 306 315 311 331 346 329 344 38 23 56 57 97 93 88 87 91 98 125 120
193 199 209 214 220 220 232 232 224 222 228 232 231 228 207 193 182 182 186 193 191 192 189 195 198 197 205 209 209 212 200 214 218 185 187 182 200 185 195 205 230 241 242 230 223 206 207 221 236 232 254 266 263 263 280 288 297 317 325 336 357 9 298 30 40 53 60 89 77 66 54 67 59 50
185 185 201 211 212 220 233 241 248 234 223 221 224 216 206 196 186 182 188 188 186 183 180 176 167 160 145 147 181 202 203 209 216 193 193 194 201 188 181 200 225 225 235 228 223 217 210 217 222 228 223 238 257 281 334 313 300 315 317 335 332 338 19 1 7 43 29 62 69 55 46 50 55 44
177 178 188 194 203 211 223 239 239 230 217 221 214 208 195 185 182 181 179 172 174 166 156 161 166 182 163 182 144 180 245 225 218 198 199 199 192 193 189 210 214 211 218 211 201 213 210 208 209 210 212 224 232 241 264 284 292 307 323 319 342 346 345 358 33 40 42 54 56 62 54 38 39 45
226 181 180 191 197 206 217 223 235 235 220 212 212 199 174 171 175 172 164 162 161 155 157 158 158 171 177 222 215 205 230 270 269 241 214 203 196 192 192 211 219 220 219 209 194 203 212 193 173 216 230 230 253 258 240 238 262 275 286 314 332 324 320 20 28 34 57 86 87 72 48 47 35 34
220 189 173 185 191 205 212 219 226 234 226 212 195 172 169 165 166 162 159 156 150 151 150 154 156 166 167 194 205 210 217 225 240 345 334 239 212 203 200 204 215 212 211 210 205 198 170 158 152 167 192 203 253 242 235 245 270 233 283 305 310 308 302 314 83 64 66 46 65 89 82 72 59 17
217 199 194 196 195 191 205 217 218 228 228 214 186 164 158 165 161 159 156 154 146 148 152 156 165 171 181 187 202 204 190 166 144 131 33 44 161 214 205 218 218 219 213 209 207 178 171 162 167 166 189 189 244 312 314 221 223 222 206 273 303 320 316 353 58 85 79 67 64 89 70 114 28 31
204 206 208 205 219 216 192 207 214 220 221 206 180 162 158 154 158 155 151 144 143 150 162 161 169 174 174 178 189 214 240 255 273 267 278 277 212 207 209 242 219 214 209 217 191 175 164 170 178 176 179 197 218 264 261 302 257 227 176 216 261 272 253 121 100 85 48 79 71 78 134 131 148 253
197 208 218 216 216 227 238 198 202 217 219 193 169 161 155 151 150 148 143 140 148 152 155 163 168 167 170 169 171 191 206 223 231 242 247 244 248 257 216 216 223 203 209 230 198 193 184 178 181 187 186 202 218 245 272 265 323 272 219 193 215 246 161 111 100 137 98 33 88 49 69 62 11 123
182 196 215 218 215 219 229 245 201 205 217 180 162 156 150 143 142 142 148 147 148 150 148 146 159 164 168 171 171 174 190 194 191 198 201 226 229 252 252 230 226 228 207 233 221 203 184 191 195 193 191 191 208 223 211 195 246 259 265 215 200 224 253 146 146 121 122 107 87 73 64 89 74 78
182 190 206 213 212 213 228 232 246 201 193 177 156 148 147 149 146 145 141 144 147 151 151 159 158 152 155 166 160 152 167 186 198 194 191 207 239 253 257 248 231 225 214 225 216 211 187 195 196 194 196 207 216 198 174 183 249 302 332 266 210 200 195 128 155 144 205 89 126 95 109 84 91 294
175 188 201 220 227 209 219 233 229 233 188 161 146 149 147 148 143 149 152 152 147 142 147 152 158 163 178 172 171 165 191 213 198 187 186 207 259 265 283 304 310 268 241 241 224 207 209 213 209 204 200 194 136 93 100 119 261 276 261 295 274 212 166 153 158 168 167 152 131 127 138 143 147 122
183 189 196 199 222 249 235 265 209 210 187 158 149 140 142 145 149 143 141 139 140 146 148 158 166 167 170 173 173 162 183 201 204 216 221 206 250 267 272 276 268 288 289 263 243 239 244 234 235 214 155 126 135 177 195 194 233 241 350 330 344 211 166 105 85 90 144 161 143 107 89 72 73 82
204 186 187 194 206 227 258 305 237 153 163 148 143 138 133 131 131 134 133 138 143 145 160 160 163 163 168 172 169 167 172 198 201 210 238 239 233 234 238 235 236 236 239 261 272 273 277 224 169 152 152 164 187 191 204 202 215 191 128 92 121 120 141 118 94 78 66 60 29 114 165 160 148 159
322 178 170 181 205 197 137 75 306 144 130 129 130 131 132 134 138 140 144 145 151 162 156 155 155 154 161 167 152 141 164 185 189 191 227 245 259 260 244 256 272 290 304 298 263 238 241 194 168 158 152 198 189 191 207 195 200 198 160 152 144 129 119 123 99 86 65 41 36 67 65 82 131 186
357 15 34 33 48 70 67 60 44 54 109 115 116 115 115 113 121 121 122 128 131 133 141 148 149 152 147 151 149 177 202 191 183 196 217 239 253 270 293 306 302 297 287 276 280 263 227 235 194 149 172 193 186 206 205 186 191 162 142 147 168 155 150 151 149 145 100 69 358 19 90 78 75 75